Regional Weather Roundup
Issued by NWS

Home | Current Version | Previous Version | Graphics & Text | Print | Product List | Glossary On
Versions: 1 2 3 4 5 6 7 8 9 10 11 12 13 14 15 16 17 18 19 20 21 22 23 24 25 26 27 28 29 30 31 32 33 34 35 36 37 38 39 40 41 42 43 44 45 46 47 48
000
ASUS45 KCYS 261110
RWRWY

WYOMING REGIONAL WEATHER ROUNDUP
NATIONAL WEATHER SERVICE CHEYENNE WY
400 AM MST MON JAN 26 2015

NOTE:  "FAIR" INDICATES FEW OR NO CLOUDS BELOW 12,000 FEET
WITH NO SIGNIFICANT WEATHER AND/OR OBSTRUCTIONS TO VISIBILITY.

WYZ001-261200-
YELLOWSTONE NATIONAL PARK

CITY           SKY/WX    TMP DP  RH WIND       PRES   REMARKS
LK YELLOWSTONE   N/A     19  17  92 NW3       30.46S
W YELLOWSTONE  NOT AVBL

$$
WYZ002>013-054>058-071-098>099-261200-
NORTHERN WYOMING

CITY           SKY/WX    TMP DP  RH WIND       PRES   REMARKS
JACKSON        CLOUDY    23  21  93 CALM      30.46S VSB 1/4
CODY           FAIR      34  27  75 NE7       30.19S WCI  28
GREYBULL       FAIR      18  17  96 CALM      30.22F
WORLAND        FAIR      20  18  92 CALM      30.21S
SHERIDAN       FAIR      34  26  72 SW5       30.08F WCI  30
BUFFALO        FAIR      50  25  37 S6        30.13S
GILLETTE       FAIR      41  28  60 W10       30.09S
HULETT           N/A    N/A N/A N/A MISG        N/A
NEWCASTLE      FAIR      41  30  65 N14       30.09R

$$
WYZ014>020-022>026-101>103-261200-
CENTRAL WYOMING

CITY           SKY/WX    TMP DP  RH WIND       PRES   REMARKS
BIG PINEY      FAIR      25  20  81 N7        30.38S WCI  17
PINEDALE       FAIR      21  21 100 W7        30.39F WCI  13
DUBOIS         FAIR      43  23  45 NW22      30.34R
LANDER         FAIR      33  25  72 CALM      30.26R
RIVERTON       FAIR      27  22  81 SW8       30.27R WCI  19
CASPER         FAIR      41  27  57 SW16G22   30.21F
DOUGLAS        FAIR      37  28  70 NW9       30.17F WCI  30

$$
WYZ021-027>030-104>119-261200-
SOUTHERN WYOMING

CITY           SKY/WX    TMP DP  RH WIND       PRES   REMARKS
EVANSTON       FAIR      28  26  92 NE6       30.41F FOG     WCI  22
KEMMERER       FAIR      27  23  86 CALM      30.40S
FORT BRIDGER   FAIR      38  29  69 W15       30.42R WCI  30
ROCK SPRINGS   FAIR      32  26  78 SW12      30.37S WCI  23
DIXON          FAIR      26  22  82 NE5       30.44S WCI  21
RAWLINS        FAIR      32  24  72 SE8       30.34S WCI  25
SARATOGA       FAIR      27  23  86 W5        30.36S WCI  21
LARAMIE        FAIR      31  21  66 CALM      30.28S
CHEYENNE       FAIR      48  23  37 NW14G24   30.20F
TORRINGTON     FAIR      41  28  60 NW13      30.13S
PINE BLUFFS    FAIR      45  28  53 NW18      30.16R

$$


USA.gov is the U.S. government's official web portal to all federal, state and local government web resources and services.